This is the latest recevied weather packets stored in our database for station/object N5SOR-1. If no packets are shown the sender has not sent any weather packets the latest 10 day(s).
| Time | Temp. | Humidity | Pressure | Rain* | Wind** | Luminosity | Snow |
|---|---|---|---|---|---|---|---|
| 1777855308 | 21.67° C | 41% | 1015.5 hPa | 0 mm | - | 69 W/m² | - |
| 1777854647 | 21.67° C | 40% | 1015.4 hPa | 0 mm | - | 121 W/m² | - |
| 1777853987 | 22.22° C | 38% | 1015.4 hPa | 0 mm | - | 357 W/m² | - |
| 1777853326 | 22.22° C | 39% | 1015.4 hPa | 0 mm | - | 221 W/m² | - |
| 1777852665 | 22.78° C | 38% | 1015.5 hPa | 0 mm | - | 169 W/m² | - |
| 1777852005 | 22.78° C | 39% | 1015.5 hPa | 0 mm | - | 446 W/m² | - |
| 1777851344 | 22.78° C | 38% | 1015.5 hPa | 0 mm | - | 202 W/m² | - |
| 1777850684 | 23.33° C | 37% | 1015.6 hPa | 0 mm | - | 250 W/m² | - |
| 1777850023 | 23.33° C | 38% | 1015.5 hPa | 0 mm | - | 332 W/m² | - |
| 1777849362 | 23.33° C | 36% | 1015.5 hPa | 0 mm | - | 264 W/m² | - |
| 1777848702 | 23.89° C | 36% | 1016 hPa | 0 mm | - | 501 W/m² | - |
| 1777848041 | 23.89° C | 36% | 1016.1 hPa | 0 mm | - | 589 W/m² | - |
| 1777847381 | 23.89° C | 36% | 1016.1 hPa | 0 mm | - | 584 W/m² | - |
| 1777846720 | 23.89° C | 35% | 1016.2 hPa | 0 mm | - | 513 W/m² | - |
| 1777846059 | 23.89° C | 35% | 1016.4 hPa | 0 mm | - | 557 W/m² | - |
| 1777845399 | 23.89° C | 36% | 1016.6 hPa | 0 mm | - | 380 W/m² | - |
| 1777844738 | 23.33° C | 35% | 1016.6 hPa | 0 mm | - | 490 W/m² | - |
| 1777844077 | 23.89° C | 36% | 1016.9 hPa | 0 mm | - | 788 W/m² | - |
| 1777843417 | 24.44° C | 36% | 1016.9 hPa | 0 mm | - | 814 W/m² | - |
| 1777842756 | 23.89° C | 37% | 1017.2 hPa | 0 mm | - | 893 W/m² | - |
| 1777842095 | 23.89° C | 37% | 1017.5 hPa | 0 mm | - | 956 W/m² | - |
| 1777841435 | 23.33° C | 37% | 1017.8 hPa | 0 mm | - | 958 W/m² | - |
| 1777840774 | 23.89° C | 37% | 1018 hPa | 0 mm | - | 925 W/m² | - |
| 1777840114 | 23.33° C | 38% | 1018.1 hPa | 0 mm | - | 830 W/m² | - |
| 1777839453 | 22.78° C | 39% | 1018.3 hPa | 0 mm | - | 986 W/m² | - |
* Rain latest hour (hover to see other rain measurements)
** Current wind speed in m/s (hover to see current wind gust speed)